Location: Unspecified
(0.0000°N, 0.0000°E)
Time: 17:22:35
(UTC+00:00)

Transit 4A - Visible Passes

Search period start: 23 September 2019 00:00
Search period end: 03 October 2019 00:00
Orbit: 865 x 979 km, 66.8° (Epoch: 22 September)

Date Brightness Start Highest point End Pass type
(mag) Time Alt. Az. Time Alt. Az. Time Alt. Az.
28 Sep 10.2 20:27:35 10° NNW 20:28:15 13° NW 20:28:15 13° NW visible
29 Sep 9.1 18:52:19 10° NNE 18:55:19 19° NE 18:55:19 19° NE visible
29 Sep 10.1 20:37:31 10° NW 20:38:57 16° WNW 20:38:57 16° WNW visible
30 Sep 8.3 19:00:31 10° N 19:05:45 35° ENE 19:06:28 34° E visible
30 Sep 10.3 20:48:10 10° WNW 20:50:08 15° W 20:50:08 15° W visible
01 Oct 7.7 19:09:18 10° N 19:15:03 62° ENE 19:18:23 25° SE visible
02 Oct 7.8 19:18:31 10° NNW 19:24:19 76° WSW 19:30:05 10° SSE visible
